Showing default

FLOCK 4H 28, 66731

Orbit data source: Space-Track

FLOCK 4H 28, 66731 is a payload satellite owned by Planet (US) in SSO that was launched on Fri, 28 Nov 2025 UTC via an FALCON 9 launch vehicle from the Air Force Western Test Range (AFWTR). Payload-class satellites include a variety of spacecraft equipped with specific instruments for various scientific and technological missions. These include communications satellites like Starlink; space stations such as the ISS; scientific satellites like the Hubble; Earth observation satellites from companies like Planet Labs, Umbra, and HawkEye 360; GPS; miniature CubeSats for education and research; and military/defense satellites.

Loading next visibility...
Identifier
66731, 2025-276BT
Orbit
SSO
Country
Flag of USUS
Related business
Manufacturer
Planet
Mission
Operational Commercial Imaging
Bus & Motor
CUBESAT 3U, Unknown motor
Mass
5.7 kg wet, 5.7 kg dry
Launch date (UTC)
2025-11-28 (2 months ago)
Launch vehicle
FALCON 9
Launch site
Air Force Western Test Range (AFWTR)
Object type
Payload
Rocket body
Debris
Shape & HBR
Box + 2 Pan, 1.0 m
Radar Cross Section
0.072 m²

Expand to show TLE details & history
Last TLE update: 6 hours ago

TLE from 6 hours ago
0 FLOCK 4H 28
1 66731U 25276BT  26035.15633949  .00008780  00000-0  43678-3 0  9995
2 66731  97.4313 110.9320 0005838 113.0250 247.1600 15.17836117 10229
Epoch: 2026-02-04T03:45Z
TLE epoch observation values (Epoch: 2026-02-04T03:45:07.731Z)
Latitude
-0.00006°
Longitude
-79.67717°
Altitude
517.032 km
Speed
7.604 km/s
True Right ascension
07h 23m 43s
True Declination
0° 00' 00"
Sunlit
Object was in full shadow at epoch
Visualization orbit readout
Latitude
Unknown
Longitude
Unknown
Altitude
Unknown
Speed
Unknown
Apparent Right ascension
Unknown
Apparent Declination
Unknown
Sunlit
N/A
Visualization observer readout
Local Sidereal Time
11:54:46
Azimuth
Unknown
Elevation
Unknown
Doppler factor
Unknown
Orbital elements
Apogee altitude
513.372 km
Perigee altitude
505.331 km
Semi-major axis
6,887.489 km
Eccentricity
0.00058
Inclination
97.4313°
RAAN
110.932°
Arg. of periapsis
113.025°
True anomaly
247.09836°
Mean anomaly
247.16°
Eccentric anomaly
247.12918°
Mean motion
3.7971 °/min
Orbital period
94.81 mins
BSTAR
0.00043678
Loading maneuver chart data...
Computing Atmospheric mass density...
Loading historical data...
Loading historical data...
Loading historical data...
Loading historical data...
Loading historical data...
Loading historical data...
Loading historical data...

Documentation

Showing up to 5 results
|